Satellite-Ground Cal/Val Region Overpasses Predictions

Prediction of Satellite NPP Overpassing Cal/Val Region: PacNW

Region Location: (Latitude: 10.00, Longitude: 139.50) to (Latitude: 22.70, Longitude: 165.60).

Table of predicted overpasses for the next 14.0 days since TLE Epoch: 7/18/2020
Interval Starting Time Starting Location Ending Time Ending Location
1 07/19/2020 02:39:03 ( 10.00, 159.94) 07/19/2020 02:42:39 ( 22.68, 156.92)
2 07/19/2020 15:10:57 ( 22.67, 157.17) 07/19/2020 15:14:32 ( 10.05, 154.17)
3 07/20/2020 02:20:03 ( 10.05, 164.68) 07/20/2020 02:23:38 ( 22.67, 161.68)
4 07/20/2020 14:51:56 ( 22.68, 161.93) 07/20/2020 14:55:32 ( 10.00, 158.91)
5 07/21/2020 03:42:31 ( 10.04, 144.07) 07/21/2020 03:46:06 ( 22.66, 141.06)
6 07/21/2020 14:34:10 ( 18.23, 165.59) 07/21/2020 14:36:30 ( 10.01, 163.67)
7 07/21/2020 16:14:24 ( 22.69, 141.31) 07/21/2020 16:16:31 ( 15.24, 139.51)
8 07/22/2020 03:23:30 ( 10.03, 148.83) 07/22/2020 03:27:05 ( 22.65, 145.82)
9 07/22/2020 15:55:23 ( 22.70, 146.07) 07/22/2020 15:58:59 ( 10.02, 143.05)
10 07/23/2020 03:04:28 ( 10.02, 153.58) 07/23/2020 03:08:03 ( 22.64, 150.58)
11 07/23/2020 15:36:22 ( 22.65, 150.82) 07/23/2020 15:39:57 ( 10.03, 147.81)
12 07/24/2020 02:45:27 ( 10.01, 158.34) 07/24/2020 02:49:03 ( 22.69, 155.32)
13 07/24/2020 15:17:21 ( 22.66, 155.58) 07/24/2020 15:20:56 ( 10.04, 152.57)
14 07/25/2020 02:26:25 ( 10.00, 163.10) 07/25/2020 02:30:01 ( 22.68, 160.08)
15 07/25/2020 14:58:19 ( 22.67, 160.33) 07/25/2020 15:01:54 ( 10.05, 157.33)
16 07/26/2020 02:10:08 ( 19.62, 165.60) 07/26/2020 02:11:00 ( 22.67, 164.84)
17 07/26/2020 03:48:55 ( 10.05, 142.47) 07/26/2020 03:52:27 ( 22.50, 139.51)
18 07/26/2020 14:39:18 ( 22.68, 165.09) 07/26/2020 14:42:53 ( 10.06, 162.09)
19 07/26/2020 16:20:48 ( 22.68, 139.72) 07/26/2020 16:21:02 ( 21.85, 139.51)
20 07/27/2020 03:29:54 ( 10.04, 147.23) 07/27/2020 03:33:29 ( 22.67, 144.23)
21 07/27/2020 16:01:46 ( 22.68, 144.48) 07/27/2020 16:05:22 ( 10.01, 141.46)
22 07/28/2020 03:10:52 ( 10.04, 151.99) 07/28/2020 03:14:27 ( 22.66, 148.98)
23 07/28/2020 15:42:45 ( 22.69, 149.23) 07/28/2020 15:46:21 ( 10.02, 146.22)
24 07/29/2020 02:51:51 ( 10.03, 156.75) 07/29/2020 02:55:26 ( 22.65, 153.74)
25 07/29/2020 15:23:44 ( 22.65, 153.98) 07/29/2020 15:27:19 ( 10.03, 150.97)
26 07/30/2020 02:32:49 ( 10.02, 161.51) 07/30/2020 02:36:25 ( 22.70, 158.49)
27 07/30/2020 15:04:43 ( 22.66, 158.74) 07/30/2020 15:08:18 ( 10.04, 155.73)
28 07/31/2020 02:14:38 ( 12.95, 165.59) 07/31/2020 02:17:24 ( 22.69, 163.24)
29 07/31/2020 03:55:18 ( 10.01, 140.89) 07/31/2020 03:56:59 ( 15.94, 139.51)
30 07/31/2020 14:45:41 ( 22.66, 163.50) 07/31/2020 14:49:16 ( 10.04, 160.49)
31 08/01/2020 03:36:16 ( 10.00, 145.65) 08/01/2020 03:39:52 ( 22.68, 142.63)
32 08/01/2020 14:29:50 ( 11.52, 165.59) 08/01/2020 14:30:15 ( 10.05, 165.25)
